Location: Newark
(46.7000°N, 60.6000°W)
Time: 07:26:13
(UTC+00:00)

Vanguard 3 - Pass Details

Date: 08 November 2020
Orbit: 508 x 3262 km, 33.3° (Epoch: 29 November)

Event Time Altitude Azimuth Distance (km) Brightness Sun altitude
Rises 12:51:13 0° 276° (W) 6,669 11.4 15.3°
Reaches altitude 10° 12:56:29 10° 265° (W) 5,922 11.2 15.9°
Maximum altitude 13:10:30 27° 218° (SW) 4,917 11.4 17.5°
Drops below altitude 10° 13:24:25 10° 171° (S) 5,813 12.8 18.9°
Sets 13:29:37 0° 159° (SSE) 6,522 13.2 19.4°
